DW5595 Weather Reports


Display with metric or nautical units.
time (UTC)temp
F
wind
direction
speed
MPH
gust
MPH
rain 1hr
in
rain 24hr
in
rain mn
in
humidity
%
barometer
mb
20260831004527 73 148 0.0 0.0 0.00 0.00 0.00 91 1020.8
20260831003023 74 148 0.0 0.0 0.00 0.00 0.00 90 1020.7
20260831001517 75 148 0.0 0.0 0.00 0.00 0.00 88 1020.5
20260831000035 76 148 0.0 0.0 0.00 0.00 0.00 87 1020.5
20260830234544 76 148 0.0 0.0 0.00 0.00 0.00 85 1020.4
20260830233037 77 148 0.0 0.0 0.00 0.00 0.00 83 1020.4
20260830231530 78 148 0.0 0.0 0.00 0.00 0.00 80 1020.6
20260830230031 79 148 0.0 0.0 0.00 0.00 0.00 78 1020.5
20260830224523 79 148 0.0 0.0 0.00 0.00 0.00 79 1020.5
20260830223043 80 171 0.0 0.0 0.00 0.00 0.00 79 1020.3
20260830221534 80 170 0.0 0.0 0.00 0.00 0.00 77 1020.3
20260830220033 81 184 0.0 0.0 0.00 0.00 0.00 74 1020.5
20260830214530 82 184 0.0 1.0 0.00 0.00 0.00 73 1020.6
20260830213030 83 169 0.0 2.0 0.00 0.00 0.00 70 1020.5
20260830211532 83 198 0.0 2.0 0.00 0.00 0.00 68 1020.7
20260830210027 83 174 0.0 4.0 0.00 0.00 0.00 68 1020.6
20260830204542 83 142 0.0 2.0 0.00 0.00 0.00 71 1020.6
20260830203049 83 186 1.0 3.0 0.00 0.00 0.00 67 1020.8
20260830201538 82 145 0.0 3.0 0.00 0.00 0.00 67 1020.7
20260830200052 82 161 2.0 7.0 0.00 0.00 0.00 69 1020.8
20260830194529 83 156 1.0 6.0 0.00 0.00 0.00 72 1021.2
20260830193007 82 127 4.0 7.0 0.00 0.00 0.00 72 1021.5
20260830191507 82 140 1.0 7.0 0.00 0.00 0.00 75 1021.7
20260830190005 83 191 2.0 8.0 0.00 0.00 0.00 71 1021.8
20260830184517 83 159 1.0 5.0 0.00 0.00 0.00 72 1022.0
20260830183007 83 15 2.0 4.0 0.00 0.00 0.00 69 1022.2
20260830181507 83 138 1.0 5.0 0.00 0.00 0.00 72 1022.5
20260830180015 81 121 1.0 4.0 0.00 0.00 0.00 74 1022.7
20260830174508 80 243 0.0 3.0 0.00 0.00 0.00 73 1022.9
20260830173006 81 309 0.0 5.0 0.00 0.00 0.00 74 1022.9
20260830171506 81 330 2.0 5.0 0.00 0.00 0.00 76 1023.2
20260830170010 79 341 2.0 3.0 0.00 0.00 0.00 79 1023.6
20260830164528 77 138 1.0 3.0 0.00 0.00 0.00 83 1023.8
20260830163012 76 119 1.0 4.0 0.00 0.00 0.00 85 1024.0
20260830161509 76 154 1.0 3.0 0.00 0.00 0.00 85 1024.2
20260830160008 75 352 0.0 2.0 0.00 0.00 0.00 85 1024.1
20260830154513 75 18 1.0 2.0 0.00 0.00 0.00 86 1024.2
20260830153014 74 13 0.0 2.0 0.00 0.00 0.00 87 1024.1
20260830151513 74 11 2.0 3.0 0.00 0.00 0.00 88 1024.1
20260830150013 74 9 1.0 3.0 0.00 0.00 0.00 89 1024.2
20260830144513 73 275 0.0 2.0 0.00 0.00 0.00 90 1024.1
20260830143011 73 24 3.0 4.0 0.00 0.00 0.00 91 1023.9
20260830141514 72 17 1.0 2.0 0.00 0.00 0.00 92 1024.0
20260830140015 72 32 0.0 2.0 0.00 0.00 0.00 93 1024.0
20260830134521 72 28 0.0 2.0 0.00 0.00 0.00 93 1024.0
20260830133019 72 148 0.0 2.0 0.00 0.00 0.00 94 1024.1
20260830131549 72 351 0.0 2.0 0.00 0.00 0.00 95 1024.1
20260830130016 71 351 0.0 2.0 0.00 0.00 0.00 95 1024.2
20260830124515 71 351 0.0 2.0 0.00 0.00 0.00 95 1024.3
20260830123017 71 168 1.0 2.0 0.00 0.00 0.00 96 1024.0
20260830121517 71 175 0.0 2.0 0.00 0.00 0.00 96 1024.0
20260830120020 71 136 0.0 2.0 0.00 0.00 0.00 96 1023.9
20260830114520 71 168 0.0 2.0 0.00 0.00 0.00 96 1023.7
20260830113016 70 131 0.0 2.0 0.00 0.00 0.00 96 1023.2
20260830111517 70 283 0.0 2.0 0.00 0.00 0.00 96 1023.1
20260830110023 70 343 0.0 0.0 0.00 0.00 0.00 96 1022.9
20260830104522 70 343 0.0 0.0 0.00 0.00 0.00 96 1023.0
20260830103025 70 343 0.0 2.0 0.00 0.00 0.00 96 1022.8
20260830101519 70 343 0.0 0.0 0.00 0.00 0.00 96 1022.6
20260830100025 70 343 0.0 2.0 0.00 0.00 0.00 96 1022.4
20260830094519 69 302 1.0 2.0 0.00 0.00 0.00 96 1022.4
20260830093022 69 201 0.0 2.0 0.00 0.00 0.00 96 1022.4
20260830091521 68 201 0.0 2.0 0.00 0.00 0.00 96 1022.3
20260830090025 68 196 0.0 2.0 0.00 0.00 0.00 96 1022.4
20260830084524 68 196 0.0 2.0 0.00 0.00 0.00 96 1022.3
20260830083025 68 196 0.0 2.0 0.00 0.00 0.00 96 1022.4
20260830081527 68 196 0.0 2.0 0.00 0.00 0.00 96 1022.5
20260830080024 67 196 0.0 0.0 0.00 0.00 0.00 96 1022.6
20260830074523 67 196 0.0 1.0 0.00 0.00 0.00 96 1022.8
20260830073024 67 196 0.0 2.0 0.00 0.00 0.00 96 1022.5
20260830071535 67 196 0.0 2.0 0.00 0.00 0.00 96 1022.7
20260830070012 67 196 0.0 2.0 0.00 0.00 0.00 95 1022.7
20260830064509 67 196 0.0 2.0 0.00 0.00 0.00 95 1022.7
20260830063007 67 196 0.0 2.0 0.00 0.00 0.00 95 1022.6
20260830061528 68 196 0.0 0.0 0.00 0.00 0.00 95 1022.8
20260830060023 68 196 0.0 2.0 0.00 0.00 0.00 95 1023.0
20260830054524 68 196 0.0 2.0 0.00 0.00 0.00 95 1023.0
20260830053019 68 196 0.0 2.0 0.00 0.00 0.00 95 1023.1
20260830051514 69 196 0.0 2.0 0.00 0.00 0.00 95 1023.2
20260830050036 69 304 0.0 0.0 0.00 0.00 0.00 95 1023.2
20260830044505 69 304 0.0 1.0 0.00 0.00 0.00 95 1023.2
20260830043031 69 303 0.0 2.0 0.00 0.00 0.00 94 1023.5
20260830041535 69 304 0.0 2.0 0.00 0.00 0.00 94 1023.4
20260830040028 70 304 0.0 0.0 0.00 0.00 0.00 94 1023.4
20260830034518 70 303 0.0 0.0 0.00 0.00 0.00 94 1023.5
20260830033017 70 303 0.0 0.0 0.00 0.00 0.00 94 1023.4
20260830031508 70 303 0.0 0.0 0.00 0.00 0.00 94 1023.0
20260830030032 71 304 0.0 0.0 0.00 0.00 0.00 93 1023.3
20260830024532 71 304 0.0 2.0 0.00 0.00 0.00 94 1023.1
20260830023031 71 304 0.0 2.0 0.00 0.00 0.00 93 1023.0
20260830021523 72 303 0.0 0.0 0.00 0.00 0.00 93 1022.7
20260830020024 72 304 0.0 2.0 0.00 0.00 0.00 93 1022.4
20260830014532 72 304 0.0 2.0 0.00 0.00 0.00 92 1022.2
20260830013030 72 304 0.0 2.0 0.00 0.00 0.00 92 1021.9
20260830011534 73 161 0.0 2.0 0.00 0.00 0.00 91 1021.5
20260830010030 74 161 0.0 0.0 0.00 0.00 0.00 89 1021.3